THORAD DELTA 1 DEB, 42603

Orbit data source: Space-Track

THORAD DELTA 1 DEB, 42603 is space debris in SSO originally from a launch on Fri, 15 Nov 1974 UTC launched from the Air Force Western Test Range (AFWTR). Debris objects in space refer to the collection of defunct objects orbiting the Earth. Examples of debris include non-operational satellites, rocket bodies, and fragments generated from explosions, collisions, or faulty payload assembly.

Loading next visibility...
Identifier
42603, 1974-089FU
Orbit
SSO
Country
Flag of USUS
Related business
Manufacturer
Unknown
Mission
Spacecraft
Bus & Motor
Unknown
Mass
Unknown
Launch date (UTC)
1974-11-15 (51 years ago)
Launch vehicle
Unknown
Launch site
Air Force Western Test Range (AFWTR)
Object type
Payload
Rocket body
Debris
Shape & HBR
Unknown shape, 0.1 m
Radar Cross Section
Small (<0.1 m²)

Expand to show TLE details & history
Last TLE update: 2 weeks ago

TLE from 2 weeks ago
0 THORAD DELTA 1 DEB
1 42603U 74089FU  26112.48865053  .00000023  00000-0  53244-3 0  9990
2 42603 100.8923 209.0775 0213103 104.6953 257.7825 12.17928717551505
Epoch: 2026-04-22T11:43Z
TLE epoch observation values (Epoch: 2026-04-22T11:43:39.405Z)
Latitude
-0.00009°
Longitude
-177.38602°
Altitude
1,643.569 km
Speed
7.033 km/s
True Right ascension
13h 56m 18s
True Declination
0° 00' 00"
Sunlit
Object was in full shadow at epoch
Visualization orbit readout
Latitude
Unknown
Longitude
Unknown
Altitude
Unknown
Speed
Unknown
Apparent Right ascension
Unknown
Apparent Declination
Unknown
Sunlit
N/A
Visualization observer readout
Local Sidereal Time
17:46:19
Azimuth
Unknown
Elevation
Unknown
Doppler factor
Unknown
Orbital elements
Apogee altitude
1,769.113 km
Perigee altitude
1,429.118 km
Semi-major axis
7,977.253 km
Eccentricity
0.02131
Inclination
100.8923°
RAAN
209.0775°
Arg. of periapsis
104.6953°
True anomaly
255.40989°
Mean anomaly
257.7825°
Eccentric anomaly
256.59478°
Mean motion
3.04623 °/min
Orbital period
118.18 mins
BSTAR
0.00053244
Loading maneuver chart data...
Computing Atmospheric mass density...

Documentation

Showing up to 5 results
|